Location: *
(51.5000°N, 0.1100°W)
Time: 20:17:44
(UTC+00:00)

MOZ.5/SAFIR/RUBIN 5/SL-8 - Pass Details

Date: 25 May 2024
Orbit: 671 x 700 km, 98.3° (Epoch: 24 June)

Event Time Altitude Azimuth Distance (km) Brightness Sun altitude
Exits shadow 00:56:03 15° 145° (SE) 1,837 5.6 -16.4°
Maximum altitude 00:59:51 57° 70° (ENE) 820 4.3 -16.2°
Drops below altitude 10° 01:04:29 10° 352° (N) 2,156 7.4 -16.0°
Sets 01:06:45 0° 349° (NNW) 3,072 8.3 -15.9°
